Montreal Mirabel, Quebec

12:44 AM EST on November 23, 2017 (GMT -0500)
Montreal Mirabel

Weather History for CYMX - April, 2012

Change the Weather History Date:

Saturday, April 14, 2012

  Actual Average Record
Temperature  
Mean Temperature 50 °F -  
Max Temperature 60 °F 50 °F 64 °F (1998)
Min Temperature 39 °F 30 °F 24 °F (2003)
Degree Days  
Heating Degree Days 16    
Moisture  
Dew Point 30 °F    
Average Humidity 48    
Maximum Humidity 70    
Minimum Humidity 29    
Precipitation  
Precipitation 0.00 in - - ()
Sea Level Pressure  
Sea Level Pressure 30.02 in    
Wind  
Wind Speed 7 mph ()    
Max Wind Speed 14 mph    
Max Gust Speed 22 mph    
Averages and records for this station are not official NWS values.
T = Trace of Precipitation, MM = Missing Value Source: Averaged Metar Reports

Daily Weather History Graph

Daily Weather History Graph

Search for Another Location

Airport or City:

Trip Planner

Search our weather history database for the weather conditions in past years. The results will help you decide how hot, cold, wet, or windy it might be!

Date:

Astronomy

Apr. 14, 2012 Rise Set
Actual Time 6:11 AM EDT 7:41 PM EDT
Civil Twilight 5:40 AM EDT 8:13 PM EDT
Nautical Twilight 5:02 AM EDT 8:50 PM EDT
Astronomical Twilight 4:22 AM EDT 9:31 PM EDT
Moon 2:52 AM EDT (4/14) 1:13 PM EDT (4/14)
Length of Visible Light 14h 32m
Length of Day
13h 30m
Last Quarter, 37% of the Moon is Illuminated
Apr 14
Last Quarter
Apr 21
New
Apr 29
First Quarter
May 5
Full
May 12
Last Quarter

Hourly Weather History & Observations

Time (EDT) Temp. Windchill Dew Point Humidity Pressure Visibility Wind Dir Wind Speed Gust Speed Precip Events Conditions
12:00 AM 44.6 °F 40.7 °F 26.6 °F 49% 30.07 in 25.0 mi WSW 6.9 mph - N/A   Clear
1:00 AM 44.6 °F 40.7 °F 30.2 °F 57% 30.07 in 25.0 mi SW 6.9 mph - N/A   Clear
2:00 AM 42.8 °F 39.3 °F 30.2 °F 61% 30.07 in 25.0 mi WSW 5.8 mph - N/A   Partly Cloudy
3:00 AM 41.0 °F 36.4 °F 30.2 °F 65% 30.06 in 25.0 mi WSW 6.9 mph - N/A   Scattered Clouds
4:00 AM 41.0 °F 35.8 °F 30.2 °F 65% 30.06 in 25.0 mi WSW 8.1 mph - N/A   Partly Cloudy
5:00 AM 39.2 °F 34.2 °F 30.2 °F 70% 30.06 in 25.0 mi WSW 6.9 mph - N/A   Mostly Cloudy
6:00 AM 39.2 °F 34.2 °F 30.2 °F 70% 30.06 in 45.0 mi WSW 6.9 mph - N/A   Mostly Cloudy
7:00 AM 39.2 °F 35.0 °F 30.2 °F 70% 30.08 in 45.0 mi WSW 5.8 mph - N/A   Mostly Cloudy
8:00 AM 41.0 °F 34.7 °F 30.2 °F 65% 30.10 in 45.0 mi WSW 10.4 mph - N/A   Mostly Cloudy
9:00 AM 44.6 °F 39.2 °F 30.2 °F 57% 30.09 in 45.0 mi WSW 10.4 mph 21.9 mph N/A   Mostly Cloudy
10:00 AM 50.0 °F - 32.0 °F 50% 30.09 in 45.0 mi WSW 8.1 mph - N/A   Scattered Clouds
11:00 AM 55.4 °F - 32.0 °F 41% 30.07 in 45.0 mi SW 12.7 mph 18.4 mph N/A   Mostly Cloudy
12:00 PM 59.0 °F - 32.0 °F 36% 30.04 in 45.0 mi WSW 9.2 mph - N/A   Mostly Cloudy
1:00 PM 60.8 °F - 32.0 °F 34% 30.01 in 45.0 mi WSW 10.4 mph 18.4 mph N/A   Mostly Cloudy
2:00 PM 60.8 °F - 28.4 °F 29% 30.01 in 45.0 mi WSW 13.8 mph 21.9 mph N/A   Overcast
3:00 PM 60.8 °F - 30.2 °F 31% 29.97 in 45.0 mi WSW 9.2 mph - N/A   Overcast
4:00 PM 60.8 °F - 30.2 °F 31% 29.96 in 45.0 mi WSW 12.7 mph 20.7 mph N/A   Mostly Cloudy
5:00 PM 60.8 °F - 30.2 °F 31% 29.96 in 45.0 mi WSW 10.4 mph 19.6 mph N/A   Mostly Cloudy
6:00 PM 59.0 °F - 30.2 °F 34% 29.96 in 45.0 mi WSW 9.2 mph - N/A   Mostly Cloudy
7:00 PM 57.2 °F - 26.6 °F 31% 29.94 in 45.0 mi WSW 6.9 mph - N/A   Mostly Cloudy
8:00 PM 53.6 °F - 26.6 °F 35% 29.94 in 45.0 mi SSW 4.6 mph - N/A   Mostly Cloudy
9:00 PM 51.8 °F - 28.4 °F 41% 29.93 in 25.0 mi SSE 3.5 mph - N/A   Mostly Cloudy
10:00 PM 51.8 °F - 30.2 °F 44% 29.93 in 25.0 mi SSW 4.6 mph - N/A   Mostly Cloudy
11:00 PM 50.0 °F - 32.0 °F 50% 29.91 in 25.0 mi SW 2.3 mph - N/A   Overcast